Location: Newark
(51.0500°N, 12.4500°E)
Time: 23:06:29
(UTC+00:00)

Tiros 1 - All Passes

Search period start: 18 February 2020 00:00
Search period end: 28 February 2020 00:00
Orbit: 631 x 664 km, 48.4° (Epoch: 18 February)

Date Brightness Start Highest point End Pass type
(mag) Time Alt. Az. Time Alt. Az. Time Alt. Az.
18 Feb - 02:42:37 10° SSW 02:46:11 22° SE 02:49:44 10° E visible
18 Feb - 04:23:15 10° WSW 04:27:45 52° SSE 04:32:15 10° E visible
18 Feb - 06:05:07 10° W 06:09:42 62° S 06:14:17 10° ESE daylight
18 Feb - 07:47:17 10° W 07:51:31 35° SSW 07:55:44 10° SE daylight
18 Feb - 09:31:11 10° WSW 09:32:45 12° SW 09:34:19 10° SSW daylight
19 Feb - 01:29:11 10° SSE 01:30:39 11° SE 01:32:07 10° ESE visible
19 Feb - 03:07:40 10° SW 03:11:53 35° SSE 03:16:05 10° E visible
19 Feb - 04:49:07 10° WSW 04:53:41 62° S 04:58:16 10° E visible
19 Feb - 06:31:09 10° W 06:35:38 52° SSW 06:40:08 10° ESE daylight
19 Feb - 08:13:37 10° W 08:17:13 22° SW 08:20:48 10° SSE daylight
20 Feb - 01:52:43 10° SSW 01:56:10 21° SE 01:59:38 10° E visible
20 Feb - 03:33:14 10° WSW 03:37:43 50° SSE 03:42:12 10° E visible
20 Feb - 05:15:05 10° W 05:19:40 63° S 05:24:14 10° ESE visible
20 Feb - 06:57:13 10° W 07:01:29 37° SSW 07:05:44 10° SE daylight
20 Feb - 08:40:50 10° WSW 08:42:45 12° SW 08:44:40 10° SSW daylight
21 Feb - 00:39:46 10° SSE 00:40:40 10° SE 00:41:35 10° SE night (unlit)
21 Feb - 02:17:41 10° SW 02:21:51 34° SSE 02:26:02 10° E visible
21 Feb - 03:59:05 10° WSW 04:03:39 61° S 04:08:13 10° E visible
21 Feb - 05:41:06 10° W 05:45:36 53° SSW 05:50:07 10° ESE visible
21 Feb - 07:23:31 10° W 07:27:12 24° SSW 07:30:53 10° SSE daylight
22 Feb - 01:02:49 10° S 01:06:10 20° SE 01:09:31 10° E visible
22 Feb - 02:43:13 10° WSW 02:47:41 49° SSE 02:52:09 10° E visible
22 Feb - 04:25:02 10° W 04:29:37 63° S 04:34:12 10° ESE visible
22 Feb - 06:07:10 10° W 06:11:28 38° SSW 06:15:45 10° SE daylight
22 Feb - 07:50:34 10° WSW 07:52:46 13° SW 07:54:57 10° SSW daylight
23 Feb - 01:27:43 10° SW 01:31:50 32° SSE 01:35:58 10° E visible
23 Feb - 03:09:02 10° WSW 03:13:36 61° S 03:18:10 10° E visible
23 Feb - 04:51:03 10° W 04:55:34 55° SSW 05:00:05 10° ESE visible
23 Feb - 06:33:26 10° W 06:37:12 25° SSW 06:40:57 10° SSE daylight
24 Feb - 00:12:56 10° S 00:16:10 19° SE 00:19:24 10° E night (unlit)
24 Feb - 01:53:12 10° SW 01:57:39 47° SSE 02:02:06 10° E visible
24 Feb - 03:34:59 10° W 03:39:35 64° S 03:44:09 10° ESE visible
24 Feb - 05:17:06 10° W 05:21:26 40° SSW 05:25:45 10° SE visible
24 Feb - 07:00:20 10° WSW 07:02:46 14° SW 07:05:13 10° S daylight
25 Feb - 00:37:44 10° SSW 00:41:49 31° SSE 00:45:53 10° E night (unlit)
25 Feb - 02:19:00 10° WSW 02:23:34 60° S 02:28:08 10° E visible
25 Feb - 04:01:00 10° W 04:05:32 56° SSW 04:10:04 10° ESE visible
25 Feb - 05:43:21 10° W 05:47:11 26° SSW 05:51:01 10° SSE daylight
25 Feb - 23:23:03 10° S 23:26:10 18° SE 23:29:16 10° E night (unlit)
26 Feb - 01:03:10 10° SW 01:07:37 46° SSE 01:12:03 10° E visible
26 Feb - 02:44:56 10° W 02:49:32 64° S 02:54:07 10° E visible
26 Feb - 04:27:03 10° W 04:31:25 42° SSW 04:35:45 10° SE visible
26 Feb - 06:10:08 10° WSW 06:12:47 15° SW 06:15:26 10° S daylight
26 Feb - 23:47:46 10° SSW 23:51:48 29° SSE 23:55:49 10° E night (unlit)
27 Feb - 01:28:57 10° WSW 01:33:32 59° S 01:38:05 10° E visible
27 Feb - 03:10:56 10° W 03:15:30 57° S 03:20:02 10° ESE visible
27 Feb - 04:53:16 10° W 04:57:10 27° SSW 05:01:04 10° SSE visible
27 Feb - 22:33:12 10° S 22:36:10 17° SE 22:39:07 10° ESE night (unlit)
